Location: Newark
(36.0797°N, 3.9744°E)
Time: 09:52:42
(UTC+00:00)

Transit 2A - Visible Passes

Search period start: 16 December 2019 00:00
Search period end: 26 December 2019 00:00
Orbit: 602 x 957 km, 66.7° (Epoch: 15 December)

Date Brightness Start Highest point End Pass type
(mag) Time Alt. Az. Time Alt. Az. Time Alt. Az.
16 Dec 5.5 05:05:43 10° SSW 05:10:36 78° WNW 05:15:07 10° NNE visible
17 Dec 6.0 04:34:23 32° S 04:36:31 66° ESE 04:41:00 10° NNE visible
17 Dec 7.4 06:17:48 10° WNW 06:19:59 13° NW 06:22:05 10° NNW visible
18 Dec 7.4 04:04:14 28° ENE 04:04:14 28° ENE 04:06:42 10° NE visible
18 Dec 7.0 05:44:52 19° WNW 05:45:39 19° NW 05:48:55 10° N visible
19 Dec 7.1 05:13:16 22° NNW 05:13:16 22° NNW 05:15:19 10° N visible
20 Dec 8.0 04:41:08 12° NNE 04:41:08 12° NNE 04:41:31 10° NNE visible
